Flagstaff, AZ

11:23 AM MST on April 28, 2017 (GMT -0700)
Flagstaff Pulliam

Weather History for KFLG - August, 2014

Change the Weather History Date:

Saturday, August 2, 2014

  Actual Average Record
Temperature  
Mean Temperature 63 °F 66 °F  
Max Temperature 76 °F 80 °F 93 °F (1902)
Min Temperature 49 °F 52 °F 43 °F (1976)
Degree Days  
Heating Degree Days 2 1  
Month to date heating degree days 3 2  
Since 1 July heating degree days 4 34  
Cooling Degree Days 0 2  
Month to date cooling degree days 0 4  
Year to date cooling degree days 98 85  
Growing Degree Days 12 (Base 50)    
Moisture  
Dew Point 52 °F    
Average Humidity 67    
Maximum Humidity 93    
Minimum Humidity 41    
Precipitation  
Precipitation 0.23 in 0.11 in 1.71 in (1963)
Month to date precipitation 0.66 0.22  
Year to date precipitation 8.19 11.30  
Snow  
Snow 0.00 in 0.00 in 0.00 in (2002)
Month to date snowfall 0.0 0.0  
Since 1 July snowfall 0.0 0.0  
Snow Depth 0.00 in    
Sea Level Pressure  
Sea Level Pressure 30.08 in    
Wind  
Wind Speed 4 mph (SW)    
Max Wind Speed 17 mph    
Max Gust Speed 22 mph    
Visibility 9 miles    
Events Rain    
T = Trace of Precipitation, MM = Missing Value Source: NWS Daily Summary

Daily Weather History Graph

Daily Weather History Graph

Search for Another Location

Airport or City:

Trip Planner

Search our weather history database for the weather conditions in past years. The results will help you decide how hot, cold, wet, or windy it might be!

Date:

Astronomy

Aug. 02, 2014 Rise Set
Actual Time 5:36 AM MST 7:28 PM MST
Civil Twilight 5:08 AM MST 7:56 PM MST
Nautical Twilight 4:35 AM MST 8:30 PM MST
Astronomical Twilight 3:59 AM MST 9:05 PM MST
Moon 11:45 AM MST (8/2) 11:06 PM MST (8/2)
Length of Visible Light 14h 47m
Length of Day
13h 52m
Waxing Crescent, 38% of the Moon is Illuminated
Aug 2
Waxing Crescent
Aug 3
First Quarter
Aug 10
Full
Aug 17
Last Quarter
Aug 25
New

Hourly Weather History & Observations

Time (MST) Temp. Dew Point Humidity Pressure Visibility Wind Dir Wind Speed Gust Speed Precip Events Conditions
12:57 AM 54.0 °F 50.0 °F 86% 30.06 in 10.0 mi Calm Calm - N/A   Clear
1:57 AM 53.6 °F 50.0 °F 88% 30.31 in 10.0 mi SW 5.8 mph - N/A   Clear
2:57 AM 51.1 °F 48.9 °F 92% 30.09 in 10.0 mi SW 3.5 mph - N/A   Clear
3:57 AM 50.0 °F 46.9 °F 89% 30.09 in 10.0 mi Calm Calm - N/A   Clear
4:57 AM 50.0 °F 46.9 °F 89% 30.12 in 10.0 mi Calm Calm - N/A   Clear
5:57 AM 51.1 °F 48.0 °F 89% 30.12 in 10.0 mi Calm Calm - N/A   Partly Cloudy
6:57 AM 57.9 °F 52.0 °F 81% 30.11 in 10.0 mi Calm Calm - N/A   Mostly Cloudy
7:57 AM 62.1 °F 53.1 °F 72% 30.09 in 10.0 mi Calm Calm - N/A   Mostly Cloudy
8:57 AM 66.0 °F 53.1 °F 63% 30.08 in 10.0 mi West 4.6 mph - N/A   Scattered Clouds
9:57 AM 70.0 °F 50.0 °F 49% 30.06 in 10.0 mi West 4.6 mph - N/A   Scattered Clouds
10:57 AM 72.0 °F 50.0 °F 46% 30.05 in 10.0 mi ENE 3.5 mph - N/A   Partly Cloudy
11:57 AM 75.0 °F 52.0 °F 44% 30.03 in 10.0 mi NE 10.4 mph - N/A   Partly Cloudy
12:57 PM 73.9 °F 48.0 °F 40% 30.02 in 10.0 mi SE 5.8 mph - N/A   Scattered Clouds
1:30 PM 73.9 °F 55.0 °F 52% 30.30 in 10.0 mi SW 12.7 mph - N/A   Clear
1:57 PM 75.0 °F 53.1 °F 46% 29.98 in 10.0 mi WSW 6.9 mph - N/A   Clear
2:57 PM 70.0 °F 55.0 °F 59% 30.03 in 10.0 mi WSW 10.4 mph - N/A   Mostly Cloudy
3:57 PM 66.0 °F 52.0 °F 60% 30.05 in 10.0 mi WNW 9.2 mph - 0.00 in   Partly Cloudy
4:57 PM 72.0 °F 48.9 °F 44% 29.98 in 10.0 mi SW 8.1 mph - N/A   Clear
5:57 PM 62.1 °F 55.9 °F 80% 30.06 in 5.0 mi NNE 5.8 mph - 0.00 in Rain Light Rain
6:57 PM 62.1 °F 53.1 °F 72% 30.02 in 10.0 mi West 3.5 mph - 0.02 in   Mostly Cloudy
7:57 PM 61.0 °F 55.9 °F 83% 30.04 in 10.0 mi ESE 3.5 mph - N/A   Overcast
8:57 PM 60.1 °F 57.0 °F 90% 30.05 in 10.0 mi Calm Calm - 0.01 in Rain Light Rain
9:57 PM 57.9 °F 55.9 °F 93% 30.06 in 8.0 mi South 4.6 mph - 0.03 in Rain Light Rain
10:57 PM 57.9 °F 55.9 °F 93% 30.07 in 5.0 mi ESE 3.5 mph - 0.06 in Rain Rain
11:57 PM 57.0 °F 55.0 °F 93% 30.05 in 8.0 mi Calm Calm - 0.11 in Rain Light Rain